Showing default

LUR-1, 60506

Orbit data source: Space-Track

LUR-1, 60506 is a Spanish payload satellite in SSO that was launched on Fri, 16 Aug 2024 UTC via an FALCON 9 launch vehicle from the Air Force Western Test Range (AFWTR). Payload-class satellites include a variety of spacecraft equipped with specific instruments for various scientific and technological missions. These include communications satellites like Starlink; space stations such as the ISS; scientific satellites like the Hubble; Earth observation satellites from companies like Planet Labs, Umbra, and HawkEye 360; GPS; miniature CubeSats for education and research; and military/defense satellites.

Loading next visibility...
Identifier
60506, 2024-149AQ
Orbit
SSO
Country
Flag of ESES / SPN
Related business
Manufacturer
AVS
Mission
Operational Commercial Imaging
Bus & Motor
LUR, Unknown motor
Mass
57 kg wet, 57 kg dry
Launch date (UTC)
2024-08-16 (1 year ago)
Launch vehicle
FALCON 9
Launch site
Air Force Western Test Range (AFWTR)
Object type
Payload
Rocket body
Debris
Shape & HBR
Box, 0.3 m
Radar Cross Section
0.275 m², Medium (>0.1 m² and < 1m²)

Expand to show TLE details & history
Last TLE update: 13 hours ago

TLE from 13 hours ago
0 LUR-1
1 60506U 24149AQ  25289.19532117  .00008964  00000-0  35396-3 0  9998
2 60506  97.3996   5.1807 0005893  91.0990 269.0923 15.25735925 64719
Epoch: 2025-10-16T04:41Z
TLE epoch observation values (Epoch: 2025-10-16T04:41:15.749Z)
Latitude
-0.00004°
Longitude
-90.09344°
Altitude
491.741 km
Speed
7.619 km/s
True Right ascension
00h 20m 43s
True Declination
0° 00' 00"
Sunlit
Object was in full shadow at epoch
Visualization orbit readout
Latitude
Unknown
Longitude
Unknown
Altitude
Unknown
Speed
Unknown
Apparent Right ascension
Unknown
Apparent Declination
Unknown
Sunlit
N/A
Visualization observer readout
Local Sidereal Time
12:35:42
Azimuth
Unknown
Elevation
Unknown
Doppler factor
Unknown
Orbital elements
Apogee altitude
489.579 km
Perigee altitude
481.49 km
Semi-major axis
6,863.671 km
Eccentricity
0.00059
Inclination
97.3996°
RAAN
5.1807°
Arg. of periapsis
91.099°
True anomaly
269.02478°
Mean anomaly
269.0923°
Eccentric anomaly
269.05854°
Mean motion
3.81688 °/min
Orbital period
94.32 mins
BSTAR
0.00035396
Loading maneuver chart data...
Computing Atmospheric mass density...
Loading historical data...
Loading historical data...
Loading historical data...
Loading historical data...
Loading historical data...
Loading historical data...
Loading historical data...

Documentation

Showing up to 5 results
|